Wind_Speed
21 23 23 26 29 30 30 30 27 26 27 31 41 45 46 45 45 49 55 62 62 53 47 38 63 60 61 55 51 48 48 46 43 46 39 44 44 41 41 39 38 36 34 33
23 20 21 25 27 31 33 35 38 34 35 31 42 44 47 49 46 47 53 54 57 55 52 56 49 53 65 45 43 51 46 48 50 50 44 45 44 43 43 43 44 41 38 36
25 22 22 28 26 28 32 34 34 35 29 30 42 46 45 46 46 46 50 52 54 54 42 48 59 51 54 62 59 57 47 43 48 50 49 45 42 42 43 44 45 44 41 42
27 27 28 30 31 29 29 29 33 36 33 32 28 37 39 42 44 44 47 47 49 50 49 51 55 59 59 68 67 63 51 51 50 50 49 45 44 45 44 41 41 45 45 44
25 27 27 32 32 30 33 26 28 26 38 31 30 34 34 28 31 41 47 48 47 48 45 43 46 54 50 53 61 65 54 51 55 58 51 46 48 47 44 42 40 41 43 41
29 32 31 33 27 31 30 28 28 30 30 34 41 36 37 30 30 32 35 46 42 43 37 37 37 44 47 50 51 52 54 49 63 75 58 45 56 50 47 45 44 45 44 44
31 32 34 39 41 37 30 26 28 31 31 40 34 33 36 28 28 37 38 45 52 54 54 51 48 37 42 49 49 50 55 60 55 62 57 57 63 56 47 48 39 35 38 39
32 27 27 31 37 38 31 29 33 35 34 36 31 32 33 31 44 41 49 49 45 50 52 55 51 51 55 55 47 55 56 58 55 52 47 42 45 35 42 42 35 38 41 34
37 39 30 46 46 47 39 39 34 36 38 40 36 32 25 46 45 48 48 49 50 48 49 51 51 49 52 59 54 52 53 58 59 53 50 56 46 48 31 38 40 39 45 41
42 46 39 40 51 51 47 42 38 44 43 43 38 35 33 42 40 47 51 50 46 49 49 53 52 53 50 56 60 55 54 54 57 60 56 48 50 46 40 44 39 39 47 46
45 51 47 49 56 56 44 42 50 49 47 36 42 39 45 46 38 46 50 43 46 44 47 52 53 53 53 52 58 61 59 57 56 55 54 54 54 50 40 41 45 43 50 42
54 56 53 52 50 60 61 56 50 48 58 58 45 36 48 50 50 47 48 45 43 42 44 47 52 53 54 54 54 59 61 60 54 51 52 51 55 48 44 46 54 53 50 63
56 53 54 52 47 47 57 55 53 58 61 62 58 52 49 43 56 60 54 52 49 48 47 46 48 53 53 56 54 54 56 61 57 56 55 53 50 54 54 47 59 60 62 59
49 47 44 42 27 32 39 38 42 58 61 64 65 58 63 58 59 51 47 56 47 48 47 48 47 50 53 55 55 57 55 55 62 58 56 57 56 57 55 55 60 65 54 61
37 35 32 26 27 43 47 38 37 40 47 62 61 53 57 64 64 45 51 73 62 49 48 45 48 51 53 53 56 57 58 58 59 61 58 56 53 56 60 61 62 62 58 55
27 23 24 26 23 26 35 41 47 48 44 45 54 62 64 70 59 59 48 43 62 54 56 53 48 51 53 55 56 56 57 58 59 61 61 59 57 59 56 61 58 56 56 53
23 20 17 21 17 21 27 28 29 36 37 35 43 48 48 38 43 67 72 64 49 52 60 57 52 50 52 53 55 55 56 56 56 59 61 62 59 58 60 57 60 58 58 56
13 15 15 19 15 23 17 16 25 25 25 24 28 39 44 49 53 60 60 64 65 63 64 59 57 53 53 52 55 57 58 55 56 59 60 61 59 59 60 57 56 53 57 58
11 11 12 13 13 15 12 15 16 20 24 24 27 31 34 38 44 49 51 55 59 60 57 60 63 60 55 52 51 51 55 57 55 55 55 58 61 58 57 59 58 54 58 55
16 17 17 18 22 19 12 9 22 23 25 24 31 34 35 38 40 36 50 53 52 53 56 59 62 63 61 58 56 53 52 52 52 56 56 56 56 58 59 57 58 58 56 53
19 20 17 17 21 23 16 18 23 28 19 24 33 35 38 41 43 47 49 49 46 48 54 59 61 63 65 64 61 58 56 54 50 50 54 56 54 54 59 58 59 59 56 51
15 18 17 20 22 22 24 27 27 29 33 33 35 38 37 37 37 37 38 40 41 43 45 50 59 65 67 65 65 63 61 58 54 50 51 50 53 52 52 55 56 60 59 57
15 21 22 24 25 30 32 36 36 40 42 41 42 41 40 40 39 41 42 42 40 41 42 43 42 52 66 68 66 66 62 62 61 54 53 53 49 43 48 47 52 56 60 62
21 22 21 21 17 22 22 22 26 30 35 34 32 34 41 46 46 41 39 39 44 44 45 44 47 46 48 60 67 65 61 64 64 62 64 55 52 47 44 45 44 48 54 60
15 17 19 21 21 19 19 21 23 27 29 32 33 34 33 31 36 40 38 41 41 41 42 43 44 49 50 50 56 67 57 66 61 64 65 57 56 53 51 49 48 52 52 59
14 17 22 23 22 23 21 22 25 27 28 26 25 26 26 27 29 31 32 29 27 29 34 42 45 48 50 52 52 43 69 60 66 62 59 62 62 55 51 54 51 56 59 60
Wind_Direction
260 261 264 261 256 250 244 236 238 242 244 240 247 241 241 239 237 231 232 235 244 247 221 252 230 221 219 221 214 225 234 235 239 242 249 249 249 253 255 255 254 254 253 255
266 255 261 262 257 254 250 250 247 247 248 242 250 247 243 240 237 233 234 236 240 244 244 239 241 244 222 221 214 225 224 234 238 247 244 251 252 256 258 255 257 254 255 256
260 263 265 254 260 259 257 253 252 254 247 257 251 249 245 242 241 237 237 234 237 240 237 241 247 239 244 251 237 228 223 230 235 242 245 249 254 258 259 255 255 254 253 257
267 263 253 261 258 256 258 258 255 252 246 247 250 258 250 247 241 240 240 238 237 240 237 239 238 251 245 250 248 223 212 224 226 233 238 242 246 247 255 252 253 252 251 252
273 261 260 258 259 259 257 250 253 256 251 250 246 248 247 242 242 241 238 236 236 240 237 234 252 243 245 252 259 238 234 233 232 231 229 234 239 241 245 247 252 255 250 248
270 260 249 257 252 257 256 255 254 252 254 254 253 249 250 246 251 252 248 235 235 235 235 229 233 255 244 236 246 258 260 266 248 236 233 237 240 238 240 243 244 245 246 247
274 272 260 257 255 256 251 249 251 253 250 255 253 250 250 243 237 233 224 234 232 233 235 229 220 229 250 244 240 246 250 256 249 246 244 234 241 236 233 236 240 243 245 249
259 247 265 269 262 257 252 251 255 256 252 255 257 256 253 252 240 233 238 243 240 237 237 239 240 243 230 244 235 240 246 254 255 259 257 236 246 249 246 251 255 258 247 244
261 256 248 248 250 256 255 237 248 251 247 250 247 247 248 246 247 247 243 242 242 237 233 236 236 235 235 242 242 234 246 247 254 259 253 260 262 268 258 265 268 263 255 249
262 263 241 249 257 258 256 249 245 240 249 249 249 246 250 264 250 249 254 248 243 240 237 235 235 233 233 234 239 232 239 245 247 254 254 256 263 266 268 261 263 260 257 248
264 264 259 245 249 260 252 255 242 243 238 249 246 242 244 241 237 258 253 253 246 239 237 236 235 234 231 231 233 237 233 241 249 253 251 255 258 263 259 263 263 265 255 228
270 269 264 259 249 251 254 248 237 238 242 237 239 253 239 243 245 234 247 251 248 246 239 235 234 233 232 232 232 234 236 238 242 245 246 248 251 254 255 254 258 261 254 247
272 273 272 268 264 258 257 254 246 242 238 240 238 231 244 250 236 241 248 250 242 244 242 234 233 233 231 231 233 234 235 237 239 242 241 242 244 247 253 254 256 258 260 245
274 273 272 267 230 237 243 257 239 240 238 240 238 239 238 241 257 250 236 240 247 239 242 239 233 233 233 231 232 235 236 238 242 237 238 240 241 247 249 252 253 254 253 252
280 275 266 259 253 233 238 227 228 242 243 239 239 239 240 235 232 240 240 243 245 242 242 243 238 232 232 234 232 233 235 238 242 236 239 240 240 243 245 247 251 259 261 271
286 278 269 268 269 266 248 244 245 247 246 241 238 240 238 240 251 241 244 234 235 239 242 243 240 236 233 234 233 232 234 238 241 242 239 241 237 237 242 247 253 258 262 263
274 281 280 275 250 248 262 260 255 251 244 244 237 236 239 245 252 250 250 243 231 235 240 239 237 236 236 234 235 236 234 236 239 242 244 243 238 237 240 244 250 257 261 257
296 296 285 275 275 266 270 256 256 244 235 236 251 239 242 244 246 249 248 250 249 244 239 234 233 233 235 235 235 235 235 235 237 241 244 244 242 239 239 241 243 250 258 257
308 297 284 286 273 284 266 262 267 257 246 248 254 251 246 247 249 247 250 248 245 242 241 237 237 234 232 232 234 233 237 236 233 234 238 244 244 240 241 239 241 244 253 253
292 298 293 291 289 291 283 245 271 261 260 257 256 252 250 249 252 251 251 249 248 247 244 238 235 234 235 231 230 233 234 234 231 231 234 238 242 242 240 237 239 241 250 251
307 311 304 300 294 295 302 278 258 262 267 234 255 255 254 255 254 252 256 260 255 250 246 241 239 236 235 235 232 230 231 231 233 233 230 234 237 242 239 235 233 239 246 248
306 288 297 296 294 297 289 293 281 273 273 267 261 264 259 256 254 253 252 250 251 249 248 245 239 237 237 236 235 233 231 230 232 235 232 229 235 237 238 238 234 235 239 245
304 293 287 282 282 286 285 284 285 286 284 273 265 262 263 262 252 245 248 250 251 252 249 246 244 241 237 235 234 234 233 230 231 233 234 231 230 234 237 235 235 234 237 241
294 297 303 309 307 300 302 293 284 280 280 280 274 268 258 254 257 254 248 249 253 256 253 249 244 244 243 237 232 231 232 231 230 228 228 223 231 226 230 228 228 232 236 242
330 325 324 327 317 316 319 322 328 318 297 284 276 274 273 266 255 253 255 257 253 252 255 255 249 242 241 241 234 230 228 227 232 232 233 232 229 228 232 236 232 222 233 238
338 341 341 342 330 324 320 320 324 332 316 294 281 272 268 270 266 257 254 249 252 262 267 268 257 250 245 238 234 237 224 227 228 236 235 230 226 232 233 236 243 236 223 236
Height
5793 5793 5794 5795 5795 5797 5798 5801 5804 5809 5810 5809 5808 5812 5816 5822 5826 5831 5832 5835 5839 5843 5850 5845 5844 5849 5853 5858 5863 5870 5874 5878 5880 5883 5887 5889 5891 5894 5896 5897 5898 5899 5899 5899
5785 5787 5787 5787 5788 5789 5790 5792 5794 5796 5799 5799 5800 5803 5807 5811 5817 5821 5822 5829 5832 5835 5841 5838 5834 5835 5844 5843 5851 5857 5862 5869 5872 5875 5880 5882 5884 5886 5888 5890 5891 5892 5893 5894
5780 5783 5781 5780 5781 5781 5783 5784 5787 5788 5791 5790 5792 5793 5797 5803 5808 5813 5813 5820 5823 5828 5833 5830 5829 5836 5839 5837 5846 5849 5852 5858 5864 5868 5870 5872 5874 5876 5878 5881 5884 5885 5887 5888
5774 5775 5774 5774 5773 5775 5774 5778 5778 5779 5781 5782 5788 5784 5790 5795 5799 5803 5806 5811 5815 5818 5823 5823 5826 5827 5832 5834 5833 5835 5844 5850 5853 5857 5859 5862 5864 5866 5868 5872 5874 5876 5879 5880
5769 5767 5767 5765 5766 5767 5768 5770 5771 5773 5772 5773 5777 5778 5783 5790 5791 5794 5797 5801 5806 5807 5813 5818 5813 5818 5825 5824 5821 5826 5834 5841 5840 5846 5847 5849 5852 5856 5860 5865 5866 5868 5870 5872
5758 5758 5758 5758 5759 5758 5760 5761 5762 5763 5765 5765 5767 5770 5774 5781 5784 5786 5786 5791 5793 5796 5802 5809 5813 5806 5808 5815 5817 5818 5821 5825 5834 5814 5834 5832 5842 5845 5851 5854 5856 5860 5862 5864
5748 5747 5749 5747 5747 5750 5751 5754 5754 5756 5757 5752 5762 5762 5764 5771 5776 5772 5771 5773 5779 5785 5790 5793 5797 5806 5802 5800 5809 5811 5814 5819 5827 5820 5826 5829 5831 5834 5840 5844 5850 5853 5854 5857
5738 5743 5743 5739 5736 5740 5744 5747 5748 5747 5750 5752 5756 5754 5758 5763 5754 5759 5763 5765 5771 5777 5779 5784 5789 5794 5796 5793 5805 5805 5806 5806 5811 5817 5814 5802 5817 5828 5834 5842 5842 5845 5847 5850
5723 5724 5734 5727 5725 5727 5732 5734 5741 5737 5740 5740 5745 5749 5748 5742 5749 5751 5750 5754 5757 5764 5769 5772 5778 5783 5786 5787 5791 5799 5796 5802 5802 5810 5814 5813 5816 5822 5823 5835 5837 5837 5839 5840
5709 5709 5715 5713 5708 5712 5715 5724 5727 5727 5725 5727 5733 5738 5742 5733 5734 5736 5738 5742 5747 5752 5756 5759 5763 5770 5776 5780 5781 5788 5790 5790 5796 5802 5806 5807 5811 5812 5818 5828 5830 5831 5831 5830
5694 5692 5700 5698 5695 5696 5702 5703 5708 5712 5715 5711 5718 5728 5725 5726 5717 5721 5724 5730 5734 5738 5741 5745 5750 5756 5762 5767 5772 5776 5781 5783 5784 5786 5795 5799 5802 5807 5813 5818 5820 5821 5820 5821
5675 5675 5677 5678 5682 5675 5678 5685 5691 5691 5695 5700 5707 5710 5705 5707 5706 5709 5711 5716 5722 5727 5729 5732 5737 5742 5749 5755 5761 5766 5771 5776 5779 5782 5787 5792 5794 5799 5805 5809 5808 5806 5811 5805
5656 5658 5655 5658 5662 5663 5661 5666 5672 5674 5678 5680 5687 5698 5688 5693 5692 5696 5698 5703 5706 5712 5717 5719 5724 5729 5735 5743 5748 5754 5760 5765 5768 5771 5779 5784 5787 5792 5794 5799 5799 5801 5804 5792
5641 5642 5641 5643 5651 5643 5643 5645 5650 5652 5657 5664 5669 5679 5684 5683 5677 5681 5678 5689 5695 5699 5703 5708 5713 5718 5723 5730 5735 5741 5747 5752 5753 5761 5768 5772 5778 5782 5785 5789 5788 5790 5796 5796
5626 5627 5626 5628 5630 5630 5631 5634 5634 5637 5643 5646 5655 5660 5669 5664 5663 5661 5661 5677 5680 5684 5690 5696 5702 5706 5711 5716 5723 5729 5734 5739 5741 5748 5754 5759 5766 5770 5773 5777 5780 5779 5783 5788
5616 5617 5616 5616 5619 5620 5620 5623 5625 5627 5630 5632 5637 5640 5649 5647 5637 5647 5652 5655 5663 5669 5677 5684 5690 5694 5698 5704 5710 5717 5722 5726 5730 5735 5740 5744 5752 5758 5761 5765 5768 5771 5775 5780
5612 5611 5611 5611 5612 5612 5612 5614 5615 5617 5619 5621 5622 5630 5633 5630 5630 5629 5635 5640 5649 5654 5662 5670 5675 5681 5687 5691 5697 5702 5709 5715 5719 5723 5726 5731 5739 5746 5750 5755 5758 5760 5764 5770
5606 5605 5605 5605 5607 5605 5608 5609 5607 5607 5608 5611 5614 5617 5617 5617 5618 5618 5624 5627 5632 5640 5645 5653 5660 5665 5672 5678 5683 5688 5694 5700 5707 5712 5716 5719 5726 5733 5738 5742 5749 5753 5752 5759
5604 5603 5602 5601 5600 5600 5602 5604 5604 5603 5603 5604 5605 5605 5606 5606 5604 5614 5614 5610 5610 5620 5631 5638 5644 5649 5657 5665 5671 5675 5679 5686 5693 5698 5703 5707 5712 5720 5726 5732 5737 5741 5741 5748
5601 5600 5599 5598 5596 5595 5596 5596 5595 5594 5594 5595 5593 5593 5594 5594 5596 5603 5591 5596 5606 5610 5614 5620 5627 5633 5641 5647 5654 5661 5666 5671 5678 5685 5691 5696 5700 5706 5713 5720 5726 5730 5732 5738
5599 5597 5594 5593 5590 5588 5591 5589 5587 5585 5591 5585 5582 5581 5582 5583 5584 5581 5582 5586 5590 5592 5597 5603 5610 5617 5623 5629 5639 5646 5651 5657 5665 5671 5677 5684 5689 5693 5699 5706 5713 5720 5723 5727
5596 5593 5592 5589 5586 5584 5580 5579 5578 5576 5572 5572 5572 5570 5570 5571 5572 5572 5572 5574 5577 5579 5582 5586 5592 5598 5605 5615 5622 5629 5636 5645 5652 5659 5664 5671 5677 5682 5688 5695 5702 5707 5712 5715
5592 5588 5586 5584 5581 5577 5574 5569 5567 5562 5557 5558 5557 5557 5556 5556 5558 5559 5561 5563 5565 5567 5570 5574 5578 5582 5587 5595 5606 5613 5622 5630 5638 5645 5651 5659 5665 5672 5677 5683 5690 5696 5700 5704
5586 5583 5579 5575 5575 5568 5565 5562 5557 5552 5547 5544 5541 5539 5539 5541 5543 5546 5549 5551 5553 5555 5557 5560 5564 5568 5573 5579 5587 5600 5605 5614 5622 5630 5634 5645 5653 5661 5666 5671 5677 5683 5688 5691
5583 5579 5576 5572 5568 5564 5558 5553 5548 5542 5536 5531 5528 5525 5524 5525 5528 5531 5535 5536 5538 5541 5544 5546 5550 5554 5559 5566 5575 5582 5589 5599 5607 5614 5621 5631 5639 5648 5653 5658 5664 5671 5675 5679
5581 5576 5572 5567 5562 5556 5553 5547 5541 5534 5527 5521 5518 5516 5515 5515 5516 5518 5520 5523 5527 5530 5532 5533 5535 5539 5545 5552 5563 5567 5577 5585 5595 5601 5607 5616 5627 5635 5642 5647 5652 5655 5660 5663